#timestamp,LO_Frequency,Hit,StdDev 
1512370815.8,286046995.0,Y
1512370835.6,286047001.5,P
1512370855.5,286047004.3,N
1512370875.3,286047003.4,N
1512370895.1,286047003.2,N
1512370915.8,286047003.5,N
1512370935.7,286047003.6,N
1512370955.5,286047000.1,N
1512370975.3,286047001.9,N
1512370995.2,286047000.3,N
1512371015.9,286046998.3,N
1512371035.7,286046997.5,N
1512371055.6,286046996.8,N
1512371075.4,286046997.5,N
1512371095.2,286046994.0,N
1512371115.1,286046995.6,N
1512371116.0,286046995.6,N
1512371135.8,286046993.6,N
1512371155.6,286046998.0,N
1512371175.5,286046993.3,N
1512371195.3,286046994.2,N
1512371215.1,286046995.7,N
1512371235.8,286046995.4,N
1512371255.7,286046994.2,N
1512371275.5,286046994.3,N
1512371295.3,286046994.6,N
1512371315.2,286046994.8,N
1512371335.9,286046992.2,N
1512371355.7,286046992.8,N
1512371375.6,286046991.7,N
1512371395.4,286046994.8,N
1512371415.2,286046990.5,N
1512371435.1,286046987.5,Y
1512371436.0,286046987.5,P
1512371455.8,286046992.1,N
1512371475.6,286046994.7,N
1512371495.5,286046991.0,N
1512371515.3,286046990.6,N
1512371535.1,286046994.8,N
1512371555.9,286046990.2,Y
1512371575.7,286046998.4,P
1512371595.5,286047000.0,N
1512371615.4,286047000.7,N
1512371635.2,286046998.1,N
1512371655.0,286046998.7,N
1512371655.9,286046998.7,N
1512371675.8,286046999.7,N
1512371695.6,286047003.3,N
1512371715.4,286047005.9,N
1512371735.2,286047004.4,N
1512371755.1,286047003.4,N
1512371756.0,286047003.4,N
1512371775.8,286047007.9,N
1512371795.6,286047010.7,N
1512371815.5,286047006.6,N
1512371835.3,286047008.7,N
1512371855.1,286047005.1,N
1512371875.9,286047005.0,N
1512371895.7,286047003.4,N
1512371915.5,286047005.4,N
1512371935.4,286047007.3,N
1512371955.2,286047008.0,N
1512371975.0,286047009.5,N
1512371975.9,286047009.5,N
1512371995.8,286047010.5,N
1512372015.6,286047009.7,N
1512372035.4,286047011.5,N
1512372055.2,286047012.0,N
1512372075.1,286047012.0,N
1512372076.0,286047012.0,N
1512372095.8,286047008.9,N
1512372115.6,286047010.7,N
1512372135.5,286047011.9,N
1512372155.3,286047011.9,N
1512372175.1,286047012.7,Y
1512372195.9,286047006.2,P
1512372215.7,286047009.7,P
1512372235.5,286047010.0,P
1512372255.4,286047008.1,Y
1512372275.2,286047002.2,P
1512372295.0,286047000.6,N
1512372295.9,286047000.6,N
1512372315.8,286047001.0,N
1512372335.6,286047000.9,N
1512372355.4,286047000.0,N
1512372375.3,286047000.2,N
1512372395.1,286047001.0,N
1512372415.8,286047000.1,N
1512372435.7,286047000.3,N
1512372455.5,286046998.2,N
1512372475.3,286047000.8,N
1512372495.2,286047000.7,N
1512372515.9,286046998.7,N
1512372535.7,286046998.3,N
1512372555.5,286046999.8,N
1512372575.4,286046996.8,N
1512372595.2,286046999.1,N
1512372615.0,286046997.6,N
1512372615.9,286046997.6,N
1512372635.8,286047001.0,N
1512372655.6,286046994.9,N
1512372675.4,286046995.2,N
1512372695.3,286046995.6,N
1512372715.1,286046993.6,N
1512372735.8,286046995.6,N
1512372755.7,286046995.5,N
1512372775.5,286046993.8,N
1512372795.3,286046994.9,N
1512372815.2,286046994.6,N
1512372835.9,286046992.0,Y
1512372855.7,286046995.8,P
1512372875.6,286046994.4,P
1512372895.4,286046994.3,P
1512372915.2,286046996.4,N
1512372935.1,286046995.8,N
1512372936.0,286046995.8,Y
1512372955.8,286047000.8,P
1512372975.6,286047004.0,N
1512372995.5,286047005.9,N
1512373015.3,286047003.2,N
1512373035.1,286047001.6,N
1512373055.9,286047002.8,N
1512373075.7,286047002.8,N
1512373095.5,286047001.8,N
1512373115.3,286047000.9,N
1512373135.2,286047002.1,N
1512373155.0,286047003.8,N
1512373155.9,286047003.8,N
1512373175.7,286047001.4,N
1512373195.6,286047004.8,N
1512373215.4,286047006.7,N
1512373235.2,286047005.0,N
1512373255.1,286047007.2,N
1512373256.0,286047007.2,N
1512373275.8,286047005.8,N
1512373295.6,286047006.1,N
1512373315.5,286047008.4,Y
1512373335.3,286047003.2,P
1512373355.1,286047004.1,P
1512373375.9,286047002.6,P
1512373395.7,286047001.9,Y
1512373415.5,286047000.7,P
1512373435.4,286046996.9,N
1512373455.2,286046997.6,N
1512373475.0,286046992.0,Y
1512373475.9,286046992.0,P
1512373495.8,286046995.9,N
1512373515.6,286046995.0,N
1512373535.4,286047001.0,N
1512373555.3,286046998.2,N
1512373575.1,286047000.0,N
1512373576.0,286047000.0,N
1512373595.8,286047002.8,N
1512373615.7,286046999.9,N
1512373635.5,286047003.5,N
1512373655.3,286047004.8,N
1512373675.1,286047005.9,N
1512373695.9,286047007.6,N
1512373715.7,286047006.6,N
1512373735.5,286047006.1,N
1512373755.4,286047011.1,N
1512373775.2,286047010.2,N
1512373795.0,286047010.9,N
1512373795.9,286047010.9,N
1512373815.8,286047014.0,N
1512373835.6,286047010.2,N
1512373855.4,286047009.0,N
1512373875.3,286047007.1,N
1512373895.1,286047008.7,N
1512373896.0,286047008.7,N
1512373915.8,286047011.7,N
1512373935.7,286047013.0,N
1512373955.5,286047013.5,N
1512373975.3,286047009.5,N
1512373995.1,286047011.4,N
1512374015.9,286047013.2,N
1512374035.7,286047009.8,N
1512374055.5,286047006.4,N
1512374075.4,286047006.7,N
1512374095.2,286047007.4,N
1512374115.0,286047006.0,N
1512374115.9,286047006.0,N
1512374135.8,286047005.2,N
1512374155.6,286047006.8,N
1512374175.4,286047006.7,N
1512374195.3,286047010.7,Y
1512374215.1,286047000.2,P
1512374235.8,286046999.1,N
1512374255.7,286046998.6,N
1512374275.5,286047001.1,N
1512374295.3,286047000.2,N
1512374315.2,286046999.9,N
1512374335.9,286047000.2,N
1512374355.7,286047005.3,N
1512374375.6,286047008.6,N
1512374395.4,286047007.3,N
